Charlevoix, MI

3:51 PM EST on November 22, 2017 (GMT -0500)
Charlevoix Municipal

Weather History for KCVX - June, 2015

Change the Weather History Date:

Thursday, June 18, 2015

  Actual Average Record
Temperature  
Mean Temperature 61 °F -  
Max Temperature 69 °F 67 °F 91 °F (2007)
Min Temperature 53 °F 54 °F 44 °F (2002)
Degree Days  
Heating Degree Days 4    
Growing Degree Days 11 (Base 50)    
Moisture  
Dew Point 54 °F    
Average Humidity 82    
Maximum Humidity 97    
Minimum Humidity 68    
Precipitation  
Precipitation 0.00 in - - ()
Sea Level Pressure  
Sea Level Pressure 29.98 in    
Wind  
Wind Speed 5 mph (WNW)    
Max Wind Speed 14 mph    
Max Gust Speed 18 mph    
Visibility 10 miles    
Events Rain    
Averages and records for this station are not official NWS values.
T = Trace of Precipitation, MM = Missing Value Source: NWS Daily Summary

Daily Weather History Graph

Daily Weather History Graph

Search for Another Location

Airport or City:

Trip Planner

Search our weather history database for the weather conditions in past years. The results will help you decide how hot, cold, wet, or windy it might be!

Date:

Astronomy

Jun. 18, 2015 Rise Set
Actual Time 5:52 AM EDT 9:31 PM EDT
Civil Twilight 5:14 AM EDT 10:09 PM EDT
Nautical Twilight 4:24 AM EDT 11:00 PM EDT
Astronomical Twilight 3:16 AM EDT 12:07 AM EDT
Moon 8:08 AM EDT (6/18) 10:57 PM EDT (6/18)
Length of Visible Light 16h 54m
Length of Day
15h 39m
Waxing Crescent, 5% of the Moon is Illuminated
Jun 18
Waxing Crescent
Jun 24
First Quarter
Jul 1
Full
Jul 8
Last Quarter
Jul 15
New

Hourly Weather History & Observations

Time (EDT) Temp. Dew Point Humidity Pressure Visibility Wind Dir Wind Speed Gust Speed Precip Events Conditions
12:15 AM 61.3 °F 55.6 °F 81% 29.95 in 10.0 mi SE 4.6 mph - N/A   Clear
12:34 AM 62.6 °F 55.8 °F 78% 29.95 in 10.0 mi SSE 4.6 mph - N/A   Clear
12:55 AM 62.8 °F 55.8 °F 78% 29.94 in 10.0 mi SE 4.6 mph - N/A   Clear
1:15 AM 61.3 °F 55.8 °F 82% 29.94 in 10.0 mi South 4.6 mph - N/A   Clear
1:34 AM 61.7 °F 55.8 °F 81% 29.94 in 10.0 mi SSE 4.6 mph - N/A   Clear
1:55 AM 63.1 °F 55.9 °F 77% 29.94 in 10.0 mi South 3.5 mph - N/A   Clear
2:15 AM 59.9 °F 55.2 °F 84% 29.94 in 10.0 mi NW 4.6 mph - N/A   Clear
2:34 AM 59.9 °F 55.9 °F 87% 29.94 in 10.0 mi South 3.5 mph - N/A   Clear
2:55 AM 60.1 °F 55.4 °F 85% 29.94 in 10.0 mi SSW 3.5 mph - N/A   Clear
3:14 AM 61.0 °F 54.9 °F 80% 29.93 in 10.0 mi South 4.6 mph - N/A   Scattered Clouds
3:35 AM 60.3 °F 53.8 °F 79% 29.93 in 10.0 mi SW 3.5 mph - N/A   Scattered Clouds
3:54 AM 60.3 °F 54.5 °F 81% 29.93 in 10.0 mi SSW 3.5 mph - N/A   Mostly Cloudy
4:15 AM 59.9 °F 54.5 °F 82% 29.92 in 10.0 mi Calm Calm - N/A   Scattered Clouds
4:35 AM 59.0 °F 54.5 °F 85% 29.92 in 10.0 mi Calm Calm - N/A   Mostly Cloudy
4:54 AM 58.3 °F 54.0 °F 86% 29.93 in 10.0 mi Calm Calm - N/A   Scattered Clouds
5:15 AM 57.6 °F 54.0 °F 88% 29.93 in 10.0 mi Calm Calm - N/A   Clear
5:35 AM 56.3 °F 53.4 °F 90% 29.93 in 10.0 mi WSW 3.5 mph - N/A   Scattered Clouds
5:54 AM 56.3 °F 54.0 °F 92% 29.93 in 10.0 mi Calm Calm - N/A   Scattered Clouds
6:15 AM 57.0 °F 54.5 °F 91% 29.92 in 10.0 mi Calm Calm - N/A   Scattered Clouds
6:35 AM 57.2 °F 55.0 °F 92% 29.92 in 10.0 mi Calm Calm - N/A   Scattered Clouds
6:54 AM 57.4 °F 55.4 °F 93% 29.92 in 10.0 mi Calm Calm - N/A   Clear
7:15 AM 59.4 °F 55.8 °F 88% 29.92 in 10.0 mi Calm Calm - N/A   Clear
7:35 AM 61.3 °F 55.6 °F 81% 29.92 in 10.0 mi SSW 4.6 mph - N/A   Clear
7:54 AM 63.0 °F 55.4 °F 76% 29.92 in 10.0 mi Calm Calm - N/A   Clear
8:15 AM 63.9 °F 55.0 °F 73% 29.92 in 10.0 mi SW 4.6 mph - N/A   Mostly Cloudy
8:35 AM 65.5 °F 54.9 °F 68% 29.92 in 10.0 mi SW 4.6 mph - N/A   Scattered Clouds
8:54 AM 65.3 °F 54.7 °F 68% 29.91 in 10.0 mi South 4.6 mph - N/A   Mostly Cloudy
9:15 AM 66.4 °F 55.4 °F 68% 29.91 in 10.0 mi South 4.6 mph - N/A   Mostly Cloudy
9:35 AM 68.2 °F 57.2 °F 68% 29.91 in 10.0 mi Calm Calm - N/A   Scattered Clouds
9:54 AM 67.6 °F 57.6 °F 70% 29.92 in 10.0 mi WSW 4.6 mph - N/A   Mostly Cloudy
10:15 AM 69.4 °F 59.2 °F 70% 29.93 in 10.0 mi West 8.1 mph - N/A   Overcast
10:35 AM 67.6 °F 59.0 °F 74% 29.93 in 10.0 mi West 11.5 mph - N/A   Overcast
10:54 AM 64.8 °F 56.3 °F 74% 29.93 in 10.0 mi WNW 6.9 mph - N/A   Overcast
11:15 AM 64.4 °F 56.5 °F 75% 29.94 in 10.0 mi WNW 9.2 mph - N/A   Overcast
11:35 AM 59.2 °F 54.3 °F 84% 29.95 in 10.0 mi NW 4.6 mph - N/A   Overcast
11:54 AM 57.6 °F 53.8 °F 87% 29.96 in 10.0 mi NW 9.2 mph - N/A   Overcast
12:14 PM 56.5 °F 54.3 °F 92% 29.97 in 4.0 mi West 13.8 mph 18.4 mph N/A Rain Heavy Rain
12:35 PM 56.3 °F 55.4 °F 97% 29.97 in 2.0 mi WNW 8.1 mph - N/A Rain Light Rain
12:54 PM 55.8 °F 54.9 °F 97% 29.97 in 2.5 mi WNW 10.4 mph - N/A   Overcast
1:15 PM 56.3 °F 55.2 °F 96% 29.97 in 4.0 mi WNW 6.9 mph - N/A   Overcast
1:34 PM 56.3 °F 55.4 °F 97% 29.97 in 5.0 mi WNW 4.6 mph - N/A Rain Light Rain
1:55 PM 58.6 °F 56.7 °F 93% 29.98 in 7.0 mi NW 9.2 mph - N/A   Mostly Cloudy
2:15 PM 59.0 °F 55.9 °F 90% 29.97 in 10.0 mi NNW 3.5 mph - N/A   Overcast
2:34 PM 59.2 °F 55.6 °F 88% 29.97 in 10.0 mi North 3.5 mph - N/A   Overcast
2:55 PM 59.2 °F 55.4 °F 87% 29.97 in 10.0 mi Calm Calm - N/A   Overcast
3:14 PM 60.8 °F 56.5 °F 86% 29.97 in 10.0 mi Calm Calm - N/A   Mostly Cloudy
3:35 PM 61.5 °F 56.7 °F 84% 29.97 in 10.0 mi NW 3.5 mph - N/A   Mostly Cloudy
3:55 PM 59.9 °F 54.9 °F 83% 29.98 in 10.0 mi West 11.5 mph - N/A   Mostly Cloudy
4:14 PM 59.4 °F 55.6 °F 87% 29.99 in 10.0 mi WNW 8.1 mph - N/A   Mostly Cloudy
4:35 PM 61.7 °F 56.8 °F 84% 29.99 in 10.0 mi West 9.2 mph - N/A   Scattered Clouds
4:55 PM 63.0 °F 57.4 °F 82% 29.99 in 10.0 mi WNW 6.9 mph - N/A   Clear
5:14 PM 64.4 °F 58.1 °F 80% 29.99 in 10.0 mi WSW 6.9 mph - N/A   Clear
5:34 PM 64.0 °F 54.9 °F 72% 29.99 in 10.0 mi WNW 8.1 mph - N/A   Clear
5:55 PM 63.0 °F 54.5 °F 74% 30.00 in 10.0 mi WNW 8.1 mph - N/A   Clear
6:14 PM 61.9 °F 53.2 °F 73% 30.00 in 10.0 mi WNW 9.2 mph - N/A   Clear
6:34 PM 61.7 °F 53.2 °F 74% 30.01 in 10.0 mi NW 6.9 mph - N/A   Clear
6:55 PM 60.8 °F 52.9 °F 75% 30.01 in 10.0 mi NNW 10.4 mph - N/A   Clear
7:14 PM 60.1 °F 52.9 °F 77% 30.02 in 10.0 mi NNW 8.1 mph 16.1 mph N/A   Clear
7:34 PM 59.2 °F 52.3 °F 78% 30.03 in 10.0 mi NNW 10.4 mph - N/A   Clear
7:55 PM 58.6 °F 51.8 °F 78% 30.03 in 10.0 mi North 8.1 mph - N/A   Clear
8:14 PM 58.1 °F 51.3 °F 78% 30.04 in 10.0 mi North 6.9 mph - N/A   Clear
8:34 PM 57.2 °F 51.1 °F 80% 30.05 in 10.0 mi North 5.8 mph - N/A   Clear
8:55 PM 57.2 °F 50.9 °F 79% 30.05 in 10.0 mi North 9.2 mph - N/A   Clear
9:14 PM 56.5 °F 50.9 °F 82% 30.06 in 10.0 mi North 6.9 mph - N/A   Clear
9:34 PM 55.6 °F 51.1 °F 85% 30.07 in 10.0 mi NNW 8.1 mph - N/A   Clear
9:55 PM 54.9 °F 50.9 °F 86% 30.09 in 10.0 mi NNW 8.1 mph - N/A   Clear
10:14 PM 54.9 °F 50.5 °F 85% 30.10 in 10.0 mi NNW 8.1 mph - N/A   Clear
10:34 PM 54.9 °F 49.5 °F 82% 30.12 in 10.0 mi North 10.4 mph 17.3 mph N/A   Clear
10:55 PM 54.5 °F 48.2 °F 79% 30.12 in 10.0 mi North 10.4 mph - N/A   Clear
11:14 PM 54.1 °F 47.3 °F 78% 30.12 in 10.0 mi NNW 9.2 mph - N/A   Clear
11:34 PM 53.8 °F 46.4 °F 76% 30.13 in 10.0 mi North 8.1 mph - N/A   Clear
11:55 PM 53.6 °F 46.0 °F 76% 30.13 in 10.0 mi North 4.6 mph - N/A   Clear